FENGYUN 1C DEB, 31670

Orbit data source: Space-Track

FENGYUN 1C DEB, 31670 is space debris in SSO originally from a launch on Mon, 10 May 1999 UTC launched from the Taiyaun Space Center, China (TSC). Fengyun 1C debris stems from the Chinese weather satellite Fengyun-1C, which was intentionally destroyed by a Chinese anti-satellite missile in 2007. This event dramatically increased the amount of space debris, with thousands of trackable fragments posing hazards to satellites and human spaceflight. The Fengyun 1C debris cloud has become a focal point in discussions about space sustainability and the need for international regulations to prevent the creation of new debris.

Loading next visibility...
Identifier
31670, 1999-025CCC
Orbit
SSO
Country
Flag of CNCN / PRC
Related business
Manufacturer
Unknown
Mission
Spacecraft
Bus & Motor
Unknown
Mass
Unknown
Launch date (UTC)
1999-05-10 (27 years ago)
Launch vehicle
Unknown
Launch site
Taiyaun Space Center, China (TSC)
Object type
Payload
Rocket body
Debris
Shape & HBR
Unknown shape, 1.1 m
Radar Cross Section
Medium (>0.1 m² and <1 m²)

Expand to show TLE details & history
Last TLE update: 1 week ago

TLE from 1 week ago
0 FENGYUN 1C DEB
1 31670U 99025CCC 26247.81140405  .00001071  00000-0  97126-3 0  9993
2 31670  98.4163  95.8068 0244517 305.4390  52.4152 13.72903166659628
Epoch: 2026-09-04T19:28Z
TLE epoch observation values (Epoch: 2026-09-04T19:28:25.309Z)
Latitude
-0.00007°
Longitude
179.77149°
Altitude
884.961 km
Speed
7.463 km/s
True Right ascension
06h 23m 13s
True Declination
0° 00' 00"
Sunlit
Object was in daylight at epoch
Visualization orbit readout
Latitude
Unknown
Longitude
Unknown
Altitude
Unknown
Speed
Unknown
Apparent Right ascension
Unknown
Apparent Declination
Unknown
Sunlit
N/A
Visualization observer readout
Local Sidereal Time
23:32:25
Azimuth
Unknown
Elevation
Unknown
Doppler factor
Unknown
Orbital elements
Apogee altitude
1,166.447 km
Perigee altitude
806.298 km
Semi-major axis
7,364.51 km
Eccentricity
0.02445
Inclination
98.4163°
RAAN
95.8068°
Arg. of periapsis
305.439°
True anomaly
54.67717°
Mean anomaly
52.4152°
Eccentric anomaly
53.542°
Mean motion
3.43421 °/min
Orbital period
104.83 mins
BSTAR
0.00097126
Loading maneuver chart data...
Computing Atmospheric mass density...

Documentation

Showing up to 5 results
|